�������l�o���
Date,Time,MP-1(��Sv/h),MP-2(��Sv/h),MP-3(��Sv/h),MP-4(��Sv/h),MP-5(��Sv/h),MP-6(��Sv/h),MP-7(��Sv/h),MP-8(��Sv/h),����,����(m/s),���J
2017/12/23,00:00,0.905,1.504,0.943,1.776,1.202,0.494,0.883,0.848,�쐼,4.5,��
2017/12/23,00:10,0.905,1.506,0.939,1.774,1.204,0.496,0.883,0.847,�쐼,4.3,��
2017/12/23,00:20,0.905,1.505,0.941,1.774,1.203,0.495,0.883,0.847,��,5.1,��
2017/12/23,00:30,0.905,1.506,0.944,1.776,1.204,0.495,0.882,0.847,��쓌,4.5,��
2017/12/23,00:40,0.904,1.505,0.942,1.773,1.200,0.497,0.883,0.848,��쓌,4.9,��
2017/12/23,00:50,0.903,1.506,0.941,1.776,1.203,0.496,0.881,0.847,��,4.9,��
2017/12/23,01:00,0.903,1.505,0.941,1.775,1.204,0.495,0.883,0.847,��,4.0,��
2017/12/23,01:10,0.903,1.505,0.944,1.773,1.202,0.494,0.881,0.847,��쐼,2.6,��
2017/12/23,01:20,0.901,1.505,0.941,1.774,1.202,0.495,0.881,0.849,��쐼,1.5,��
2017/12/23,01:30,0.904,1.508,0.943,1.774,1.203,0.496,0.882,0.847,��쐼,1.5,��
2017/12/23,01:40,0.902,1.505,0.940,1.775,1.202,0.496,0.880,0.848,�쐼,2.0,��
2017/12/23,01:50,0.905,1.505,0.943,1.772,1.200,0.495,0.883,0.848,���쐼,2.3,��
2017/12/23,02:00,0.902,1.503,0.938,1.772,1.201,0.495,0.881,0.848,��쐼,2.5,��
2017/12/23,02:10,0.904,1.505,0.941,1.773,1.200,0.496,0.882,0.847,��,3.7,��
2017/12/23,02:20,0.902,1.504,0.942,1.775,1.202,0.496,0.881,0.849,��,4.1,��
2017/12/23,02:30,0.903,1.504,0.942,1.774,1.202,0.494,0.881,0.847,��쓌,4.0,��
2017/12/23,02:40,0.904,1.504,0.939,1.773,1.203,0.495,0.881,0.848,��,3.6,��
2017/12/23,02:50,0.904,1.502,0.943,1.772,1.202,0.495,0.882,0.847,��쓌,2.5,��
2017/12/23,03:00,0.900,1.507,0.939,1.774,1.200,0.495,0.883,0.848,���k��,1.2,��
2017/12/23,03:10,0.901,1.503,0.942,1.777,1.202,0.494,0.882,0.847,��,1.7,��
2017/12/23,03:20,0.901,1.505,0.941,1.772,1.201,0.495,0.880,0.847,���k��,2.6,��
2017/12/23,03:30,0.901,1.505,0.941,1.774,1.200,0.494,0.881,0.846,�k��,1.2,��
2017/12/23,03:40,0.904,1.503,0.943,1.775,1.202,0.495,0.881,0.847,�k�k��,1.4,��
2017/12/23,03:50,0.902,1.503,0.943,1.773,1.203,0.495,0.880,0.848,���k��,1.2,��
2017/12/23,04:00,0.902,1.506,0.939,1.775,1.202,0.493,0.880,0.848,�k��,2.3,��
2017/12/23,04:10,0.901,1.504,0.941,1.774,1.199,0.494,0.882,0.847,�k,2.0,��
2017/12/23,04:20,0.903,1.502,0.941,1.773,1.200,0.493,0.880,0.847,-,CALM,��
2017/12/23,04:30,0.903,1.502,0.940,1.773,1.201,0.496,0.882,0.846,�쐼,1.2,��
2017/12/23,04:40,0.901,1.502,0.940,1.771,1.200,0.495,0.881,0.848,��,0.6,��
2017/12/23,04:50,0.901,1.502,0.941,1.772,1.201,0.495,0.880,0.846,-,CALM,��
2017/12/23,05:00,0.901,1.504,0.939,1.772,1.201,0.496,0.880,0.848,��,0.6,��
2017/12/23,05:10,0.904,1.505,0.940,1.769,1.202,0.496,0.883,0.847,�k�k��,1.7,��
2017/12/23,05:20,0.902,1.504,0.941,1.772,1.199,0.495,0.881,0.847,�k�k��,2.2,��
2017/12/23,05:30,0.904,1.503,0.941,1.772,1.199,0.493,0.881,0.848,���k��,3.6,��
2017/12/23,05:40,0.901,1.503,0.939,1.773,1.200,0.494,0.882,0.848,���k��,5.8,��
2017/12/23,05:50,0.903,1.503,0.940,1.771,1.199,0.494,0.881,0.846,���k��,4.9,��
2017/12/23,06:00,0.904,1.506,0.941,1.773,1.202,0.493,0.882,0.846,��,4.1,��
2017/12/23,06:10,0.904,1.505,0.942,1.772,1.200,0.495,0.881,0.848,��,5.7,��
2017/12/23,06:20,0.905,1.504,0.940,1.776,1.201,0.497,0.883,0.846,��,7.3,��
2017/12/23,06:30,0.901,1.505,0.942,1.777,1.201,0.495,0.882,0.849,��,7.8,��
2017/12/23,06:40,0.902,1.504,0.943,1.777,1.199,0.495,0.883,0.849,��,7.1,��
2017/12/23,06:50,0.905,1.506,0.943,1.775,1.200,0.495,0.882,0.847,��,8.1,��
2017/12/23,07:00,0.904,1.502,0.942,1.778,1.200,0.496,0.884,0.845,��,7.1,��
2017/12/23,07:10,0.905,1.503,0.943,1.774,1.198,0.495,0.883,0.849,���k��,4.7,��
2017/12/23,07:20,0.904,1.506,0.943,1.778,1.202,0.495,0.883,0.848,��,2.2,��
2017/12/23,07:30,0.902,1.505,0.942,1.775,1.202,0.494,0.885,0.848,���k��,1.2,��
2017/12/23,07:40,0.904,1.506,0.942,1.774,1.200,0.494,0.882,0.849,���쐼,0.9,��
2017/12/23,07:50,0.903,1.504,0.942,1.775,1.202,0.495,0.882,0.849,�k��,1.7,��
2017/12/23,08:00,0.905,1.505,0.941,1.774,1.201,0.495,0.883,0.849,�k�k��,3.3,��
2017/12/23,08:10,0.903,1.507,0.940,1.776,1.199,0.495,0.884,0.847,�k�k��,0.9,��
2017/12/23,08:20,0.904,1.506,0.942,1.778,1.200,0.496,0.885,0.848,���k��,3.8,��
2017/12/23,08:30,0.905,1.507,0.941,1.777,1.199,0.494,0.883,0.848,�k�k��,4.7,��
2017/12/23,08:40,0.902,1.504,0.943,1.778,1.200,0.496,0.885,0.849,�k�k��,4.3,��
2017/12/23,08:50,0.906,1.506,0.943,1.778,1.201,0.494,0.886,0.850,���k��,3.9,��
2017/12/23,09:00,0.905,1.502,0.942,1.777,1.203,0.494,0.885,0.849,���k��,3.6,��
2017/12/23,09:10,0.902,1.505,0.943,1.778,1.200,0.495,0.885,0.849,���k��,5.2,��
2017/12/23,09:20,0.905,1.505,0.941,1.777,1.202,0.494,0.886,0.848,�k��,6.0,��
2017/12/23,09:30,0.906,1.505,0.943,1.780,1.200,0.496,0.886,0.850,���k��,7.3,��
2017/12/23,09:40,0.906,1.503,0.945,1.776,1.202,0.496,0.885,0.850,���k��,7.0,��
2017/12/23,09:50,0.906,1.502,0.944,1.778,1.203,0.497,0.884,0.848,���k��,7.3,��
2017/12/23,10:00,0.904,1.504,0.944,1.777,1.204,0.497,0.883,0.848,�k��,7.0,��
2017/12/23,10:10,0.906,1.505,0.943,1.779,1.201,0.495,0.885,0.849,�k��,7.1,��
2017/12/23,10:20,0.905,1.506,0.946,1.780,1.203,0.498,0.885,0.850,�k��,8.2,��
2017/12/23,10:30,0.908,1.503,0.946,1.779,1.203,0.498,0.885,0.848,�k��,5.0,��
2017/12/23,10:40,0.907,1.502,0.945,1.781,1.206,0.497,0.884,0.850,�k��,10.7,��
2017/12/23,10:50,0.905,1.503,0.946,1.780,1.205,0.497,0.883,0.850,���k��,10.0,��
2017/12/23,11:00,0.906,1.504,0.944,1.781,1.207,0.497,0.885,0.850,���k��,10.2,��
2017/12/23,11:10,0.907,1.502,0.946,1.778,1.208,0.499,0.884,0.849,���k��,8.0,��
2017/12/23,11:20,0.908,1.501,0.946,1.782,1.205,0.499,0.885,0.849,�k��,7.4,��
2017/12/23,11:30,0.908,1.503,0.947,1.784,1.206,0.498,0.885,0.851,���k��,7.2,��
2017/12/23,11:40,0.905,1.504,0.945,1.784,1.207,0.498,0.887,0.853,���k��,9.0,��
2017/12/23,11:50,0.907,1.505,0.946,1.782,1.208,0.497,0.882,0.851,���k��,8.2,��
2017/12/23,12:00,0.906,1.506,0.946,1.783,1.209,0.499,0.884,0.851,���k��,8.8,��
2017/12/23,12:10,0.907,1.506,0.945,1.786,1.206,0.498,0.884,0.852,���k��,10.7,��
2017/12/23,12:20,0.906,1.505,0.948,1.782,1.209,0.498,0.884,0.851,���k��,9.3,��
2017/12/23,12:30,0.906,1.509,0.946,1.786,1.210,0.496,0.885,0.852,���k��,9.5,��
2017/12/23,12:40,0.905,1.503,0.947,1.781,1.208,0.499,0.884,0.850,���k��,8.3,��
2017/12/23,12:50,0.907,1.504,0.949,1.783,1.206,0.498,0.885,0.852,���k��,7.7,��
2017/12/23,13:00,0.907,1.507,0.946,1.785,1.207,0.498,0.885,0.851,��,6.4,��
2017/12/23,13:10,0.907,1.503,0.948,1.784,1.208,0.498,0.885,0.850,���k��,7.6,��
2017/12/23,13:20,0.906,1.506,0.947,1.786,1.207,0.500,0.885,0.849,���k��,8.1,��
2017/12/23,13:30,0.905,1.501,0.946,1.785,1.210,0.498,0.885,0.846,���k��,4.6,��
2017/12/23,13:40,0.907,1.505,0.948,1.785,1.208,0.497,0.884,0.849,���k��,4.0,��
2017/12/23,13:50,0.907,1.508,0.947,1.782,1.208,0.497,0.885,0.849,���k��,2.2,��
2017/12/23,14:00,0.906,1.505,0.948,1.783,1.208,0.498,0.887,0.849,���k��,4.7,��
2017/12/23,14:10,0.908,1.505,0.950,1.783,1.211,0.498,0.885,0.846,���k��,6.9,��
2017/12/23,14:20,0.908,1.508,0.946,1.784,1.210,0.499,0.885,0.849,��,6.7,��
2017/12/23,14:30,0.908,1.504,0.948,1.785,1.206,0.498,0.886,0.850,���k��,6.5,��
2017/12/23,14:40,0.908,1.508,0.949,1.785,1.206,0.499,0.887,0.851,���k��,6.1,��
2017/12/23,14:50,0.909,1.511,0.947,1.787,1.208,0.499,0.886,0.850,���k��,6.8,��
2017/12/23,15:00,0.910,1.511,0.949,1.783,1.209,0.499,0.885,0.851,���k��,8.3,��
2017/12/23,15:10,0.911,1.511,0.949,1.784,1.207,0.498,0.885,0.850,���k��,6.9,��
2017/12/23,15:20,0.909,1.510,0.946,1.784,1.210,0.498,0.885,0.851,���k��,5.2,��
2017/12/23,15:30,0.907,1.509,0.947,1.785,1.208,0.499,0.885,0.850,��,5.7,��
2017/12/23,15:40,0.907,1.511,0.946,1.784,1.205,0.498,0.884,0.848,���k��,5.6,��
2017/12/23,15:50,0.908,1.514,0.946,1.783,1.206,0.497,0.885,0.851,��,1.5,��
2017/12/23,16:00,0.908,1.510,0.948,1.783,1.205,0.498,0.884,0.848,���k��,2.6,��
2017/12/23,16:10,0.907,1.508,0.946,1.781,1.206,0.498,0.885,0.849,���k��,3.3,��
2017/12/23,16:20,0.908,1.508,0.946,1.783,1.205,0.496,0.886,0.849,���k��,3.4,��
2017/12/23,16:30,0.907,1.509,0.947,1.780,1.206,0.497,0.886,0.850,���k��,3.3,��
2017/12/23,16:40,0.907,1.510,0.946,1.781,1.205,0.496,0.886,0.850,���k��,3.3,��
2017/12/23,16:50,0.907,1.508,0.945,1.780,1.205,0.496,0.886,0.849,��,4.1,��
2017/12/23,17:00,0.906,1.509,0.946,1.780,1.206,0.495,0.883,0.848,��,2.9,��
2017/12/23,17:10,0.903,1.511,0.947,1.779,1.207,0.497,0.885,0.849,���쐼,2.2,��
2017/12/23,17:20,0.906,1.510,0.943,1.783,1.207,0.497,0.884,0.849,�쐼,0.9,��
2017/12/23,17:30,0.906,1.509,0.946,1.782,1.205,0.496,0.885,0.849,���k��,1.7,��
2017/12/23,17:40,0.906,1.511,0.948,1.782,1.207,0.495,0.885,0.849,�k��,2.8,��
2017/12/23,17:50,0.906,1.510,0.947,1.779,1.205,0.495,0.882,0.849,�k��,3.8,��
2017/12/23,18:00,0.905,1.509,0.947,1.779,1.205,0.496,0.882,0.848,���k��,5.3,��
2017/12/23,18:10,0.905,1.509,0.944,1.784,1.210,0.496,0.884,0.848,���k��,5.7,��
2017/12/23,18:20,0.903,1.509,0.946,1.780,1.206,0.496,0.883,0.847,���k��,4.0,��
2017/12/23,18:30,0.902,1.508,0.944,1.782,1.205,0.495,0.884,0.849,��,5.1,��
2017/12/23,18:40,0.905,1.510,0.947,1.780,1.206,0.496,0.881,0.850,��,6.7,��
2017/12/23,18:50,0.906,1.508,0.944,1.784,1.205,0.497,0.884,0.849,���k��,6.9,��
2017/12/23,19:00,0.905,1.510,0.943,1.782,1.206,0.495,0.883,0.848,���k��,6.2,��
2017/12/23,19:10,0.904,1.508,0.945,1.778,1.205,0.496,0.884,0.849,���k��,7.2,��
2017/12/23,19:20,0.902,1.510,0.945,1.779,1.205,0.496,0.884,0.850,���k��,5.4,��
2017/12/23,19:30,0.903,1.506,0.945,1.778,1.207,0.495,0.884,0.848,��,5.1,��
2017/12/23,19:40,0.905,1.510,0.944,1.780,1.205,0.495,0.883,0.849,���k��,6.7,��
2017/12/23,19:50,0.905,1.508,0.944,1.780,1.206,0.494,0.883,0.848,���k��,7.7,��
2017/12/23,20:00,0.904,1.509,0.947,1.781,1.206,0.495,0.882,0.849,���k��,7.3,��
2017/12/23,20:10,0.905,1.507,0.942,1.781,1.204,0.498,0.884,0.847,���k��,7.5,��
2017/12/23,20:20,0.904,1.507,0.945,1.781,1.204,0.496,0.882,0.848,��,4.1,��
2017/12/23,20:30,0.903,1.508,0.947,1.779,1.204,0.496,0.882,0.848,��,2.2,��
2017/12/23,20:40,0.903,1.509,0.944,1.778,1.204,0.495,0.883,0.848,��,3.1,��
2017/12/23,20:50,0.904,1.508,0.945,1.776,1.205,0.493,0.881,0.847,��,2.3,��
2017/12/23,21:00,0.903,1.508,0.944,1.777,1.205,0.496,0.882,0.849,�쐼,1.5,��
2017/12/23,21:10,0.904,1.508,0.942,1.778,1.204,0.495,0.882,0.847,�쐼,2.0,��
2017/12/23,21:20,0.905,1.505,0.944,1.781,1.206,0.497,0.883,0.848,���쐼,5.2,��
2017/12/23,21:30,0.902,1.508,0.943,1.776,1.205,0.495,0.883,0.848,���쐼,5.6,��
2017/12/23,21:40,0.903,1.507,0.943,1.781,1.205,0.496,0.883,0.847,���쐼,4.1,��
2017/12/23,21:50,0.904,1.507,0.944,1.781,1.204,0.495,0.883,0.848,��,5.4,��
2017/12/23,22:00,0.904,1.507,0.941,1.778,1.204,0.495,0.883,0.847,��,2.9,��
2017/12/23,22:10,0.902,1.506,0.943,1.774,1.206,0.496,0.882,0.847,���쐼,0.6,��
2017/12/23,22:20,0.903,1.506,0.942,1.779,1.205,0.496,0.882,0.847,��,1.5,��
2017/12/23,22:30,0.904,1.507,0.944,1.780,1.203,0.495,0.883,0.848,��쐼,3.3,��
2017/12/23,22:40,0.904,1.505,0.942,1.779,1.205,0.497,0.884,0.847,�쐼,4.4,��
2017/12/23,22:50,0.902,1.507,0.944,1.781,1.205,0.496,0.882,0.848,��쐼,1.7,��
2017/12/23,23:00,0.905,1.504,0.942,1.778,1.204,0.495,0.881,0.847,�k��,1.2,��
2017/12/23,23:10,0.905,1.505,0.942,1.778,1.203,0.495,0.882,0.848,��,3.6,��
2017/12/23,23:20,0.903,1.508,0.945,1.777,1.204,0.494,0.884,0.847,��,4.4,��
2017/12/23,23:30,0.904,1.505,0.945,1.777,1.204,0.494,0.883,0.846,��,5.4,��
2017/12/23,23:40,0.904,1.508,0.943,1.778,1.203,0.495,0.884,0.846,���쐼,6.4,��
2017/12/23,23:50,0.904,1.506,0.943,1.779,1.204,0.495,0.881,0.849,���쐼,9.8,��
